Temp
47 47 47 46 46 47 48 48 47 47 48 49 49 49 49 49 49 50 50 50 50 50 50 51 51 51 51 51 51 51 51 50 50 50 49 49 50 49 49 49 49 49 49 49 49 49 49 49 49 49 49 49 49 50 50 51 51 51 51 51 51 52 51 51 51 51 51 51 51
47 46 45 43 44 45 46 47 47 47 47 48 49 49 49 49 49 49 50 50 50 50 50 50 50 50 51 51 51 50 50 50 50 49 49 49 49 49 48 48 48 48 48 48 48 49 49 49 49 49 49 49 49 50 50 49 49 50 51 51 51 51 51 51 51 51 51 51 51
46 45 44 44 45 46 47 48 48 48 48 48 48 48 49 49 49 49 50 50 50 50 50 50 49 50 50 50 50 50 50 49 49 49 49 49 49 49 49 48 48 48 47 47 47 47 48 49 48 48 48 49 49 49 50 51 50 50 50 50 51 51 51 51 51 51 51 50 51
44 45 45 46 46 47 48 49 49 48 48 48 48 48 48 48 48 49 49 50 49 49 49 49 48 48 48 49 49 49 49 48 48 48 48 48 48 48 48 48 48 47 47 47 46 47 47 48 48 48 48 48 49 49 49 50 51 50 50 51 51 51 51 51 51 51 51 50 50
44 44 45 47 47 47 47 48 47 47 48 48 48 48 48 48 48 48 48 48 49 49 49 49 48 47 47 47 48 48 48 48 46 46 47 47 47 47 47 47 47 47 47 46 46 46 46 46 47 47 48 48 48 49 49 50 50 50 50 50 51 51 51 51 51 51 50 50 50
47 46 45 45 45 46 46 46 46 47 47 47 47 47 48 48 49 49 48 48 49 49 49 47 46 46 46 47 47 47 47 47 46 46 46 45 46 46 46 46 46 46 46 46 46 45 45 45 46 46 47 48 47 48 49 50 50 49 49 50 50 50 50 50 50 50 50 50 50
47 47 46 46 45 45 46 46 46 46 46 46 47 47 47 48 48 48 48 48 48 48 47 46 45 46 46 46 46 46 46 46 46 46 45 45 45 45 45 45 45 45 45 45 45 45 45 45 45 45 45 46 47 48 48 49 49 49 48 48 50 50 50 49 50 50 50 49 49
46 47 47 47 46 46 46 46 46 46 46 46 47 47 47 47 47 47 47 47 47 47 46 46 46 46 46 45 44 44 44 44 45 45 45 45 45 45 44 44 44 44 44 44 44 44 45 45 45 45 45 45 46 47 47 47 47 47 47 47 49 49 49 48 47 48 49 48 47
46 46 46 46 46 46 46 46 46 46 46 46 46 46 46 46 45 45 46 46 46 46 46 46 46 45 45 44 43 43 43 43 43 44 44 44 44 44 44 44 44 45 45 45 45 45 44 44 44 44 45 45 45 45 45 46 46 46 46 47 47 48 49 48 48 48 48 48 47
47 47 46 46 46 46 46 46 46 46 46 46 46 46 46 45 45 45 46 45 45 45 45 45 45 44 44 43 43 43 43 43 43 43 43 43 43 43 43 44 44 44 44 45 45 45 44 44 43 43 43 44 44 44 44 44 44 44 45 46 46 46 47 48 48 48 48 47 46
46 46 46 46 46 46 46 45 45 46 46 46 46 46 46 45 45 46 46 45 45 45 44 44 44 43 43 43 42 42 43 43 43 43 43 43 43 43 43 43 43 43 44 44 44 44 44 44 43 43 43 43 43 43 43 43 43 43 43 44 44 45 45 46 47 47 47 46 46
46 46 46 46 46 46 45 45 45 46 46 46 46 46 47 47 46 46 45 45 45 44 44 44 44 43 43 42 42 43 43 43 43 43 43 43 43 43 43 43 43 43 43 43 43 43 43 43 43 43 43 43 43 43 43 42 42 42 42 42 43 43 43 44 45 46 46 47 46
45 45 45 45 45 45 45 45 46 46 46 46 46 46 46 47 46 46 45 45 44 44 44 44 43 43 43 42 42 42 42 42 42 42 42 42 42 42 42 42 42 42 42 42 42 42 42 42 42 42 42 42 43 43 43 43 42 42 42 42 42 42 42 43 44 45 45 46 45
44 44 44 45 44 45 45 45 46 46 46 46 46 46 46 46 46 45 45 44 44 43 43 43 43 43 43 42 42 42 42 41 41 41 41 41 41 41 41 41 41 41 41 41 41 41 41 41 41 41 41 41 42 42 43 43 42 42 42 42 42 41 42 42 43 43 43 43 43
43 44 44 44 45 45 45 45 46 46 46 46 46 46 45 45 45 44 44 43 43 42 42 42 42 42 42 41 41 41 41 41 41 40 40 40 40 40 40 40 40 40 40 40 40 40 40 40 40 40 40 40 41 41 41 42 42 42 42 42 42 42 42 42 42 42 42 42 42
44 44 44 45 45 45 45 45 46 46 46 45 45 45 44 44 44 43 42 41 41 41 41 41 41 41 41 41 41 40 40 40 40 40 40 39 39 39 39 39 39 39 39 39 39 39 39 39 39 39 40 39 40 40 40 40 40 41 41 41 42 42 42 42 42 42 42 42 42
44 44 45 45 45 44 45 45 45 45 45 45 44 44 44 43 43 42 41 40 40 40 40 40 40 40 40 40 40 40 39 39 39 39 39 39 39 39 39 39 39 39 39 38 38 38 38 39 39 39 39 39 39 39 39 39 39 39 40 40 41 41 42 42 42 42 42 42 42
44 44 44 44 44 44 44 44 44 44 44 43 43 43 43 42 42 41 40 40 40 39 39 38 39 39 39 39 39 39 39 38 38 38 38 38 38 38 38 38 38 38 38 38 38 38 38 38 38 38 38 38 38 38 38 38 38 38 39 39 40 40 41 42 42 42 42 42 42
44 44 44 44 44 44 44 43 43 43 43 43 42 42 42 41 41 40 40 39 39 39 38 37 38 38 38 38 38 38 38 38 37 38 38 38 38 38 38 38 38 38 38 37 37 37 37 37 37 37 36 36 36 36 37 37 37 37 38 38 38 39 40 41 41 42 42 42 42
44 44 44 44 44 44 43 43 43 43 42 42 41 41 40 40 40 39 39 39 39 39 38 37 37 37 37 37 37 37 37 37 37 37 37 37 37 37 37 37 37 37 37 36 36 36 36 36 36 36 35 35 35 35 36 36 36 36 36 37 37 38 39 40 40 41 41 41 42
44 44 44 44 44 43 43 43 43 42 42 41 40 40 40 39 39 39 39 39 39 38 38 37 37 36 36 37 37 37 37 37 37 37 37 37 37 37 37 37 37 36 36 36 35 35 35 35 35 35 35 35 35 35 35 35 35 35 36 36 36 37 38 38 39 40 41 41 41
44 44 44 44 43 43 43 42 42 41 41 40 40 39 39 38 38 38 38 38 38 38 37 37 37 36 36 37 36 36 36 37 36 36 36 36 36 36 36 36 36 35 35 35 35 34 34 34 34 34 34 34 34 34 34 34 35 35 35 36 36 36 37 37 38 38 39 40 40
44 44 43 43 43 43 42 42 42 41 40 40 40 39 38 37 38 38 38 38 37 37 37 36 36 36 36 36 36 36 35 35 35 35 35 36 36 35 35 35 35 34 34 34 34 34 34 34 34 34 34 34 34 34 34 34 34 34 35 35 36 36 36 36 37 37 38 39 40
43 43 43 43 42 42 42 42 41 41 40 40 40 39 38 37 37 37 37 36 36 35 35 35 35 35 35 35 35 35 34 34 34 34 34 35 35 35 35 35 34 34 34 34 34 33 33 33 33 33 33 33 33 33 34 34 34 34 34 35 35 35 36 36 36 36 37 37 38
42 42 41 41 41 41 41 41 41 40 40 40 40 39 38 37 37 36 36 35 35 35 35 35 35 35 35 34 34 35 34 34 34 34 34 33 34 34 34 34 34 34 33 33 33 33 33 33 33 33 33 33 33 33 34 34 33 34 34 34 34 35 35 35 35 36 36 37 37
41 41 41 41 41 41 41 41 40 40 40 40 40 39 38 38 37 36 35 35 35 35 35 34 34 34 34 34 34 34 35 35 35 34 33 33 32 33 33 33 33 32 32 32 33 33 33 33 33 33 33 33 33 33 33 34 33 33 33 33 33 34 34 34 35 36 36 37 37
40 40 40 40 40 40 40 40 40 40 40 40 39 39 39 38 37 36 35 34 34 34 34 34 34 34 34 34 34 34 34 35 35 34 33 32 32 32 32 32 32 32 31 32 32 32 33 33 33 33 33 33 33 33 33 33 33 33 33 33 33 33 34 34 34 35 35 36 37
39 39 39 39 39 39 40 40 40 39 39 39 39 38 38 37 37 36 35 34 34 34 34 34 34 35 35 35 35 34 34 34 34 33 32 31 31 31 31 31 31 31 32 32 32 32 33 33 33 33 33 32 32 32 32 32 33 33 33 33 33 33 33 33 33 33 34 35 36
39 39 38 38 38 39 39 39 39 39 39 38 38 38 37 37 36 36 35 34 34 34 34 35 35 35 35 35 34 34 34 34 33 33 32 31 31 31 31 31 31 31 32 32 32 33 33 33 33 33 33 33 32 32 32 32 33 33 33 33 33 33 33 33 33 33 33 34 34
39 38 38 37 38 38 38 38 38 38 38 38 37 37 36 36 35 35 35 34 34 35 35 35 35 34 34 34 34 34 34 34 33 32 32 30 30 30 30 31 31 32 32 32 32 32 33 33 33 33 32 32 32 32 32 33 33 33 33 33 33 33 33 33 33 33 34 34 34
38 38 37 37 37 37 37 38 37 37 37 37 37 36 35 35 35 35 35 35 35 35 35 36 35 34 34 34 34 34 34 34 33 32 31 30 30 30 31 31 31 31 32 32 32 32 32 33 32 32 32 32 32 31 32 32 33 33 33 33 34 34 34 34 34 33 33 33 33
38 37 37 37 36 37 37 37 37 37 36 36 36 35 34 34 35 35 36 36 35 35 35 35 34 34 34 34 34 34 34 33 32 32 31 30 30 30 31 31 31 31 31 32 32 32 32 32 32 32 32 32 32 31 31 32 32 32 33 33 34 34 34 34 34 34 34 34 33
37 37 36 36 36 36 36 36 36 36 35 35 34 34 34 34 35 35 35 35 35 35 34 34 33 33 33 33 33 33 33 32 31 31 31 31 31 30 30 30 31 31 32 32 32 32 32 32 32 32 32 32 31 31 32 32 32 32 32 33 33 34 34 34 34 34 34 34 34
36 36 36 36 36 36 36 36 35 34 34 33 33 33 33 33 34 34 34 34 34 34 34 34 33 33 33 33 33 32 31 30 31 31 31 31 31 30 30 30 30 31 32 32 32 32 32 32 32 32 32 32 31 31 32 32 32 32 32 32 33 33 34 34 34 34 34 35 34
35 35 34 34 35 35 35 35 34 33 33 32 32 32 33 33 33 33 34 34 34 34 34 34 34 33 33 33 32 32 31 30 30 30 30 30 30 30 29 30 30 31 32 32 32 32 32 32 32 32 32 32 31 31 31 32 31 31 32 32 32 33 33 34 34 34 34 35 35
35 33 32 32 33 34 34 34 34 33 32 31 31 31 32 33 33 34 34 34 33 33 33 33 33 33 33 32 32 31 30 30 29 29 30 30 29 29 29 30 31 31 32 32 32 32 32 32 32 32 32 31 31 31 31 31 31 31 31 32 32 32 33 33 33 34 34 34 34
34 32 31 31 32 33 33 33 33 32 32 31 31 31 32 32 33 33 34 33 33 32 32 32 32 32 31 31 31 31 31 31 30 29 29 29 29 29 29 29 30 31 31 32 32 32 32 32 32 32 32 31 31 31 31 31 31 31 32 32 32 32 33 33 33 33 33 34 34
34 32 31 31 32 32 33 32 32 31 31 31 32 32 32 33 33 33 33 33 32 31 31 31 31 31 31 31 30 30 30 31 30 29 29 29 29 29 29 29 30 30 31 32 32 32 32 32 32 32 32 31 31 31 31 31 31 31 32 32 32 33 33 33 33 33 33 33 33
34 33 32 32 32 32 32 32 31 31 31 31 32 32 32 32 32 32 32 32 32 31 31 30 30 30 30 30 30 30 30 31 30 30 29 29 29 29 29 29 30 30 31 31 32 32 32 32 32 32 32 31 31 31 31 31 31 31 32 32 32 33 33 34 33 33 33 33 34
33 33 32 32 32 31 31 31 31 31 31 31 31 31 32 32 32 32 32 32 32 31 30 29 30 30 30 30 29 29 29 30 30 30 30 29 29 30 30 29 29 30 31 31 32 32 32 32 33 33 32 32 32 32 31 31 31 31 31 32 32 32 33 34 34 34 33 33 34
32 32 32 32 32 31 31 31 31 31 31 31 31 31 31 31 31 31 31 31 31 30 30 29 30 30 30 29 29 29 29 29 30 30 30 29 30 30 30 29 29 30 30 31 32 32 32 33 33 33 33 32 32 32 32 32 31 31 31 32 32 33 33 33 34 33 33 34 34
MSLP
1018.30 1018.34 1018.42 1018.50 1018.58 1018.62 1018.66 1018.74 1018.78 1018.82 1018.86 1018.86 1018.82 1018.82 1018.82 1018.82 1018.78 1018.74 1018.74 1018.74 1018.74 1018.70 1018.66 1018.62 1018.54 1018.50 1018.46 1018.42 1018.34 1018.30 1018.22 1018.14 1018.06 1018.02 1017.90 1017.82 1017.70 1017.58 1017.54 1017.46 1017.34 1017.26 1017.14 1017.02 1016.90 1016.78 1016.70 1016.58 1016.50 1016.34 1016.22 1016.10 1015.86 1015.70 1015.50 1015.38 1015.30 1015.18 1015.06 1014.98 1014.86 1014.74 1014.66 1014.58 1014.54 1014.46 1014.46 1014.46 1014.42
1018.22 1018.34 1018.50 1018.58 1018.62 1018.70 1018.74 1018.74 1018.78 1018.82 1018.86 1018.86 1018.82 1018.82 1018.78 1018.74 1018.74 1018.74 1018.70 1018.66 1018.66 1018.62 1018.58 1018.54 1018.46 1018.38 1018.30 1018.26 1018.22 1018.18 1018.10 1018.02 1017.90 1017.86 1017.74 1017.62 1017.58 1017.46 1017.42 1017.30 1017.18 1017.10 1017.02 1016.90 1016.74 1016.62 1016.50 1016.38 1016.30 1016.14 1015.98 1015.82 1015.66 1015.46 1015.30 1015.18 1015.18 1015.06 1014.90 1014.74 1014.66 1014.58 1014.46 1014.34 1014.30 1014.26 1014.26 1014.22 1014.22
1018.26 1018.42 1018.50 1018.58 1018.62 1018.66 1018.66 1018.66 1018.66 1018.70 1018.74 1018.78 1018.82 1018.82 1018.78 1018.74 1018.74 1018.70 1018.62 1018.58 1018.58 1018.54 1018.46 1018.42 1018.30 1018.26 1018.18 1018.14 1018.06 1018.02 1017.98 1017.86 1017.74 1017.66 1017.58 1017.46 1017.34 1017.26 1017.18 1017.10 1016.98 1016.90 1016.82 1016.74 1016.58 1016.46 1016.30 1016.18 1016.02 1015.90 1015.74 1015.58 1015.42 1015.22 1015.06 1014.90 1014.90 1014.82 1014.66 1014.54 1014.46 1014.38 1014.26 1014.14 1014.06 1014.06 1014.06 1014.02 1014.02
1018.30 1018.38 1018.46 1018.46 1018.54 1018.58 1018.58 1018.58 1018.62 1018.66 1018.66 1018.70 1018.74 1018.74 1018.74 1018.70 1018.70 1018.62 1018.58 1018.50 1018.46 1018.42 1018.34 1018.26 1018.18 1018.18 1018.10 1018.02 1017.90 1017.86 1017.78 1017.74 1017.62 1017.50 1017.38 1017.30 1017.18 1017.06 1016.98 1016.90 1016.78 1016.66 1016.58 1016.50 1016.38 1016.26 1016.18 1016.02 1015.86 1015.74 1015.50 1015.30 1015.14 1014.98 1014.82 1014.70 1014.58 1014.54 1014.42 1014.30 1014.22 1014.14 1014.02 1013.90 1013.86 1013.86 1013.82 1013.78 1013.74
1018.30 1018.38 1018.46 1018.46 1018.54 1018.58 1018.58 1018.62 1018.66 1018.66 1018.66 1018.66 1018.62 1018.62 1018.62 1018.58 1018.58 1018.54 1018.50 1018.42 1018.30 1018.22 1018.18 1018.14 1018.10 1018.02 1018.02 1017.90 1017.78 1017.66 1017.58 1017.50 1017.46 1017.38 1017.26 1017.06 1016.98 1016.90 1016.78 1016.70 1016.58 1016.46 1016.34 1016.26 1016.18 1016.06 1015.98 1015.86 1015.74 1015.54 1015.30 1015.10 1014.90 1014.74 1014.58 1014.42 1014.30 1014.22 1014.14 1014.02 1013.98 1013.86 1013.78 1013.70 1013.62 1013.58 1013.58 1013.46 1013.46
1018.22 1018.34 1018.46 1018.54 1018.58 1018.62 1018.62 1018.66 1018.66 1018.66 1018.62 1018.62 1018.58 1018.58 1018.54 1018.46 1018.46 1018.42 1018.30 1018.26 1018.18 1018.06 1018.02 1018.02 1018.02 1017.94 1017.86 1017.74 1017.62 1017.50 1017.42 1017.30 1017.30 1017.18 1017.06 1016.90 1016.78 1016.70 1016.58 1016.46 1016.34 1016.26 1016.18 1016.06 1015.98 1015.86 1015.78 1015.74 1015.58 1015.34 1015.14 1014.94 1014.74 1014.50 1014.34 1014.22 1014.06 1013.90 1013.82 1013.74 1013.62 1013.58 1013.50 1013.42 1013.34 1013.30 1013.26 1013.18 1013.18
1018.26 1018.34 1018.46 1018.50 1018.58 1018.58 1018.58 1018.62 1018.62 1018.62 1018.58 1018.58 1018.58 1018.50 1018.46 1018.42 1018.38 1018.30 1018.22 1018.18 1018.06 1018.02 1017.98 1017.94 1017.86 1017.74 1017.66 1017.58 1017.46 1017.34 1017.26 1017.18 1017.06 1016.94 1016.86 1016.74 1016.58 1016.46 1016.38 1016.26 1016.14 1016.02 1015.94 1015.82 1015.74 1015.62 1015.58 1015.54 1015.38 1015.18 1014.94 1014.74 1014.50 1014.30 1014.10 1014.02 1013.86 1013.66 1013.50 1013.38 1013.26 1013.22 1013.18 1013.06 1013.02 1013.02 1012.98 1012.90 1012.86
1018.38 1018.42 1018.46 1018.46 1018.54 1018.54 1018.54 1018.58 1018.54 1018.54 1018.54 1018.54 1018.46 1018.42 1018.34 1018.30 1018.26 1018.18 1018.10 1018.02 1017.98 1017.86 1017.82 1017.78 1017.70 1017.58 1017.50 1017.46 1017.30 1017.18 1017.10 1016.98 1016.86 1016.74 1016.62 1016.46 1016.30 1016.18 1016.06 1015.98 1015.86 1015.78 1015.66 1015.58 1015.50 1015.42 1015.30 1015.22 1015.10 1014.90 1014.74 1014.54 1014.30 1014.06 1013.86 1013.78 1013.58 1013.46 1013.30 1013.14 1012.98 1012.90 1012.82 1012.74 1012.74 1012.70 1012.62 1012.58 1012.54
1018.34 1018.42 1018.46 1018.46 1018.50 1018.50 1018.50 1018.46 1018.46 1018.46 1018.46 1018.42 1018.34 1018.30 1018.26 1018.22 1018.18 1018.10 1017.98 1017.90 1017.82 1017.78 1017.74 1017.62 1017.54 1017.46 1017.38 1017.26 1017.18 1017.02 1016.94 1016.86 1016.70 1016.54 1016.38 1016.22 1016.14 1015.98 1015.86 1015.74 1015.58 1015.46 1015.34 1015.30 1015.22 1015.14 1015.02 1014.94 1014.78 1014.58 1014.42 1014.26 1014.02 1013.82 1013.66 1013.58 1013.42 1013.26 1013.10 1012.90 1012.74 1012.58 1012.50 1012.42 1012.38 1012.34 1012.30 1012.26 1012.22
1018.30 1018.30 1018.38 1018.38 1018.42 1018.42 1018.42 1018.46 1018.46 1018.42 1018.38 1018.30 1018.22 1018.18 1018.14 1018.06 1018.02 1017.90 1017.82 1017.74 1017.70 1017.62 1017.58 1017.46 1017.38 1017.30 1017.18 1017.10 1017.02 1016.90 1016.74 1016.66 1016.50 1016.34 1016.18 1016.02 1015.90 1015.74 1015.58 1015.46 1015.34 1015.22 1015.10 1015.02 1014.94 1014.86 1014.74 1014.62 1014.46 1014.30 1014.14 1013.98 1013.82 1013.62 1013.50 1013.42 1013.30 1013.10 1012.90 1012.74 1012.58 1012.38 1012.26 1012.18 1012.10 1012.02 1011.98 1011.94 1011.90
1018.26 1018.26 1018.30 1018.30 1018.30 1018.30 1018.34 1018.38 1018.34 1018.30 1018.22 1018.14 1018.02 1017.94 1017.86 1017.86 1017.82 1017.74 1017.70 1017.62 1017.58 1017.46 1017.34 1017.30 1017.22 1017.14 1017.02 1016.90 1016.82 1016.70 1016.58 1016.46 1016.30 1016.14 1015.98 1015.82 1015.66 1015.54 1015.42 1015.30 1015.18 1015.02 1014.90 1014.78 1014.70 1014.62 1014.46 1014.30 1014.10 1013.90 1013.74 1013.66 1013.54 1013.42 1013.26 1013.18 1013.06 1012.90 1012.70 1012.54 1012.38 1012.22 1012.02 1011.90 1011.82 1011.74 1011.70 1011.62 1011.58
1018.18 1018.18 1018.22 1018.26 1018.26 1018.30 1018.30 1018.26 1018.18 1018.10 1017.98 1017.86 1017.82 1017.74 1017.70 1017.62 1017.58 1017.58 1017.54 1017.50 1017.42 1017.30 1017.18 1017.18 1017.10 1017.02 1016.86 1016.74 1016.58 1016.46 1016.34 1016.18 1016.10 1015.94 1015.78 1015.58 1015.46 1015.30 1015.18 1015.06 1014.94 1014.82 1014.70 1014.58 1014.54 1014.42 1014.26 1014.02 1013.86 1013.62 1013.46 1013.30 1013.22 1013.14 1012.98 1012.82 1012.74 1012.58 1012.46 1012.30 1012.18 1012.02 1011.86 1011.70 1011.58 1011.50 1011.42 1011.34 1011.30
1018.14 1018.18 1018.18 1018.18 1018.18 1018.18 1018.18 1018.06 1017.98 1017.86 1017.74 1017.66 1017.58 1017.58 1017.50 1017.46 1017.46 1017.46 1017.42 1017.30 1017.18 1017.14 1017.02 1016.98 1016.94 1016.86 1016.70 1016.50 1016.42 1016.30 1016.18 1016.02 1015.90 1015.74 1015.58 1015.42 1015.26 1015.14 1015.02 1014.86 1014.74 1014.62 1014.50 1014.42 1014.34 1014.22 1014.02 1013.82 1013.62 1013.46 1013.22 1013.06 1012.90 1012.78 1012.62 1012.50 1012.42 1012.30 1012.14 1012.02 1011.86 1011.74 1011.54 1011.38 1011.30 1011.26 1011.18 1011.10 1011.02
1018.06 1018.06 1018.06 1018.06 1018.06 1018.02 1017.94 1017.82 1017.74 1017.58 1017.50 1017.46 1017.46 1017.42 1017.42 1017.34 1017.30 1017.30 1017.26 1017.18 1017.06 1016.98 1016.90 1016.78 1016.74 1016.62 1016.50 1016.38 1016.26 1016.14 1016.02 1015.90 1015.74 1015.58 1015.38 1015.18 1015.06 1014.94 1014.78 1014.62 1014.50 1014.42 1014.30 1014.18 1014.06 1013.98 1013.82 1013.58 1013.46 1013.26 1013.06 1012.82 1012.62 1012.46 1012.34 1012.22 1012.10 1011.94 1011.78 1011.58 1011.46 1011.34 1011.22 1011.10 1011.02 1011.02 1010.94 1010.90 1010.78
1017.98 1017.94 1017.90 1017.86 1017.86 1017.78 1017.70 1017.58 1017.50 1017.38 1017.30 1017.34 1017.30 1017.30 1017.30 1017.26 1017.18 1017.18 1017.14 1017.02 1016.98 1016.90 1016.74 1016.62 1016.50 1016.42 1016.30 1016.26 1016.14 1015.98 1015.86 1015.74 1015.54 1015.30 1015.14 1014.94 1014.82 1014.70 1014.58 1014.42 1014.30 1014.18 1014.06 1013.94 1013.82 1013.74 1013.58 1013.42 1013.26 1013.06 1012.90 1012.70 1012.46 1012.30 1012.14 1012.02 1011.86 1011.66 1011.46 1011.30 1011.14 1010.98 1010.86 1010.74 1010.74 1010.74 1010.66 1010.58 1010.50
1017.78 1017.74 1017.70 1017.66 1017.58 1017.54 1017.46 1017.42 1017.30 1017.30 1017.22 1017.22 1017.22 1017.22 1017.18 1017.10 1017.06 1017.02 1017.02 1016.90 1016.82 1016.70 1016.58 1016.50 1016.34 1016.22 1016.10 1016.02 1015.94 1015.78 1015.62 1015.46 1015.30 1015.10 1014.90 1014.74 1014.58 1014.42 1014.30 1014.18 1014.02 1013.90 1013.78 1013.70 1013.58 1013.46 1013.34 1013.18 1013.06 1012.94 1012.74 1012.58 1012.30 1012.10 1011.94 1011.78 1011.58 1011.46 1011.26 1011.06 1010.90 1010.70 1010.54 1010.46 1010.38 1010.30 1010.26 1010.18 1010.18
1017.54 1017.50 1017.46 1017.42 1017.38 1017.30 1017.30 1017.30 1017.22 1017.18 1017.14 1017.14 1017.10 1017.10 1017.02 1016.98 1016.90 1016.86 1016.82 1016.74 1016.62 1016.50 1016.42 1016.30 1016.18 1016.02 1015.86 1015.74 1015.62 1015.54 1015.38 1015.18 1015.02 1014.86 1014.66 1014.46 1014.30 1014.18 1014.02 1013.90 1013.78 1013.70 1013.58 1013.46 1013.30 1013.18 1013.06 1012.94 1012.86 1012.74 1012.58 1012.38 1012.18 1011.98 1011.78 1011.58 1011.42 1011.22 1011.02 1010.82 1010.62 1010.46 1010.26 1010.14 1010.02 1009.94 1009.86 1009.82 1009.78
1017.26 1017.22 1017.22 1017.22 1017.18 1017.18 1017.18 1017.18 1017.14 1017.06 1017.02 1017.02 1016.98 1016.94 1016.90 1016.86 1016.74 1016.66 1016.58 1016.58 1016.50 1016.38 1016.18 1016.02 1015.98 1015.86 1015.70 1015.50 1015.34 1015.26 1015.18 1014.98 1014.74 1014.58 1014.46 1014.26 1014.10 1013.98 1013.82 1013.66 1013.54 1013.46 1013.34 1013.22 1013.06 1012.90 1012.78 1012.66 1012.58 1012.50 1012.38 1012.18 1012.02 1011.82 1011.62 1011.46 1011.26 1011.02 1010.82 1010.58 1010.42 1010.22 1010.02 1009.86 1009.74 1009.62 1009.54 1009.46 1009.38
1017.02 1017.02 1017.06 1017.02 1017.02 1017.02 1017.02 1017.02 1016.98 1016.90 1016.90 1016.86 1016.82 1016.74 1016.70 1016.70 1016.58 1016.54 1016.42 1016.30 1016.26 1016.18 1016.02 1015.86 1015.70 1015.58 1015.46 1015.30 1015.10 1014.98 1014.90 1014.74 1014.54 1014.34 1014.18 1014.02 1013.90 1013.74 1013.58 1013.42 1013.30 1013.18 1013.06 1012.94 1012.82 1012.66 1012.54 1012.46 1012.30 1012.26 1012.14 1011.98 1011.78 1011.62 1011.46 1011.30 1011.10 1010.90 1010.66 1010.46 1010.22 1010.02 1009.82 1009.62 1009.46 1009.34 1009.22 1009.14 1009.02
1016.90 1016.90 1016.90 1016.90 1016.90 1016.90 1016.90 1016.86 1016.82 1016.74 1016.74 1016.70 1016.62 1016.58 1016.50 1016.46 1016.38 1016.30 1016.18 1016.02 1015.98 1015.90 1015.78 1015.62 1015.46 1015.30 1015.14 1014.98 1014.82 1014.70 1014.58 1014.46 1014.26 1014.06 1013.90 1013.78 1013.62 1013.46 1013.30 1013.18 1013.02 1012.90 1012.78 1012.66 1012.58 1012.42 1012.30 1012.18 1012.10 1011.98 1011.86 1011.74 1011.54 1011.38 1011.22 1011.06 1010.90 1010.70 1010.46 1010.30 1010.02 1009.82 1009.58 1009.42 1009.26 1009.10 1008.94 1008.82 1008.74
1016.74 1016.74 1016.74 1016.74 1016.74 1016.74 1016.74 1016.66 1016.62 1016.58 1016.54 1016.50 1016.46 1016.38 1016.30 1016.22 1016.14 1016.06 1015.94 1015.82 1015.74 1015.62 1015.50 1015.34 1015.18 1015.02 1014.90 1014.70 1014.54 1014.38 1014.22 1014.14 1014.02 1013.82 1013.62 1013.50 1013.34 1013.18 1013.06 1012.94 1012.78 1012.62 1012.46 1012.38 1012.26 1012.14 1012.02 1011.90 1011.82 1011.70 1011.58 1011.42 1011.26 1011.10 1010.94 1010.78 1010.58 1010.46 1010.26 1010.02 1009.82 1009.58 1009.42 1009.26 1009.06 1008.90 1008.70 1008.54 1008.42
1016.58 1016.58 1016.58 1016.58 1016.58 1016.58 1016.54 1016.50 1016.46 1016.42 1016.34 1016.30 1016.22 1016.14 1016.06 1015.98 1015.86 1015.78 1015.70 1015.58 1015.50 1015.38 1015.22 1015.06 1014.98 1014.82 1014.62 1014.46 1014.30 1014.14 1013.94 1013.82 1013.70 1013.58 1013.42 1013.26 1013.06 1012.94 1012.82 1012.70 1012.54 1012.34 1012.18 1012.06 1011.94 1011.82 1011.74 1011.62 1011.50 1011.38 1011.30 1011.14 1010.94 1010.78 1010.62 1010.50 1010.30 1010.14 1009.90 1009.74 1009.54 1009.38 1009.22 1009.06 1008.90 1008.70 1008.46 1008.30 1008.14
1016.38 1016.42 1016.42 1016.46 1016.42 1016.38 1016.34 1016.30 1016.26 1016.18 1016.14 1016.02 1015.94 1015.86 1015.78 1015.74 1015.58 1015.50 1015.42 1015.30 1015.22 1015.14 1015.02 1014.90 1014.74 1014.58 1014.42 1014.30 1014.10 1013.94 1013.74 1013.54 1013.38 1013.26 1013.14 1013.02 1012.82 1012.70 1012.58 1012.46 1012.26 1012.06 1011.90 1011.74 1011.62 1011.54 1011.46 1011.30 1011.18 1011.10 1010.98 1010.86 1010.62 1010.46 1010.30 1010.18 1010.02 1009.78 1009.58 1009.34 1009.18 1009.02 1008.90 1008.74 1008.58 1008.46 1008.26 1008.10 1007.90
1016.26 1016.30 1016.30 1016.22 1016.22 1016.18 1016.10 1016.06 1016.02 1015.94 1015.86 1015.74 1015.66 1015.58 1015.54 1015.46 1015.38 1015.26 1015.18 1015.02 1014.98 1014.90 1014.78 1014.66 1014.50 1014.34 1014.18 1014.02 1013.90 1013.74 1013.54 1013.30 1013.06 1012.86 1012.74 1012.62 1012.50 1012.42 1012.30 1012.14 1011.94 1011.74 1011.58 1011.46 1011.34 1011.30 1011.26 1011.14 1010.94 1010.82 1010.70 1010.54 1010.38 1010.18 1010.02 1009.86 1009.70 1009.50 1009.26 1009.02 1008.82 1008.62 1008.46 1008.34 1008.22 1008.14 1008.02 1007.86 1007.74
1016.14 1016.18 1016.18 1016.10 1016.02 1015.98 1015.86 1015.82 1015.74 1015.66 1015.58 1015.50 1015.46 1015.38 1015.30 1015.18 1015.14 1015.02 1014.90 1014.78 1014.70 1014.58 1014.50 1014.42 1014.26 1014.14 1013.94 1013.78 1013.58 1013.42 1013.22 1013.02 1012.74 1012.54 1012.34 1012.22 1012.18 1012.10 1012.02 1011.86 1011.70 1011.50 1011.34 1011.22 1011.14 1011.06 1011.02 1010.94 1010.82 1010.62 1010.46 1010.30 1010.14 1009.94 1009.74 1009.58 1009.42 1009.26 1009.06 1008.82 1008.58 1008.38 1008.18 1007.98 1007.86 1007.74 1007.62 1007.54 1007.46
1016.02 1016.02 1015.98 1015.90 1015.86 1015.74 1015.66 1015.58 1015.50 1015.46 1015.38 1015.30 1015.26 1015.18 1015.06 1015.02 1014.90 1014.82 1014.70 1014.54 1014.42 1014.30 1014.22 1014.14 1014.02 1013.86 1013.70 1013.50 1013.22 1013.02 1012.86 1012.70 1012.46 1012.30 1012.10 1011.94 1011.86 1011.78 1011.74 1011.58 1011.46 1011.26 1011.14 1011.02 1010.90 1010.86 1010.74 1010.66 1010.58 1010.46 1010.30 1010.06 1009.86 1009.66 1009.46 1009.26 1009.10 1008.98 1008.86 1008.62 1008.42 1008.18 1007.94 1007.70 1007.46 1007.34 1007.26 1007.18 1007.10
1015.86 1015.82 1015.74 1015.74 1015.66 1015.58 1015.46 1015.38 1015.30 1015.26 1015.18 1015.14 1015.06 1015.02 1014.90 1014.82 1014.74 1014.58 1014.46 1014.34 1014.22 1014.10 1014.02 1013.86 1013.74 1013.58 1013.38 1013.14 1012.90 1012.70 1012.50 1012.34 1012.18 1012.02 1011.90 1011.78 1011.62 1011.54 1011.46 1011.30 1011.18 1011.02 1010.90 1010.74 1010.62 1010.54 1010.46 1010.30 1010.18 1010.14 1010.02 1009.82 1009.58 1009.38 1009.14 1008.90 1008.74 1008.58 1008.46 1008.30 1008.10 1007.90 1007.74 1007.46 1007.26 1007.10 1007.02 1006.90 1006.74
1015.74 1015.66 1015.58 1015.50 1015.46 1015.30 1015.22 1015.18 1015.18 1015.10 1015.06 1014.98 1014.90 1014.86 1014.74 1014.66 1014.58 1014.46 1014.30 1014.14 1014.02 1013.86 1013.74 1013.58 1013.42 1013.22 1013.02 1012.82 1012.58 1012.38 1012.26 1012.10 1011.94 1011.82 1011.66 1011.54 1011.42 1011.30 1011.18 1011.02 1010.90 1010.74 1010.58 1010.46 1010.30 1010.18 1010.02 1009.90 1009.78 1009.66 1009.58 1009.50 1009.30 1009.10 1008.90 1008.66 1008.46 1008.26 1008.06 1007.90 1007.74 1007.54 1007.34 1007.18 1007.02 1006.90 1006.74 1006.62 1006.54
1015.58 1015.50 1015.42 1015.30 1015.22 1015.14 1015.06 1015.06 1015.02 1014.98 1014.90 1014.86 1014.82 1014.74 1014.58 1014.50 1014.42 1014.26 1014.06 1013.90 1013.78 1013.62 1013.46 1013.22 1013.06 1012.90 1012.74 1012.54 1012.30 1012.14 1011.98 1011.82 1011.70 1011.54 1011.38 1011.26 1011.18 1011.02 1010.90 1010.74 1010.54 1010.34 1010.18 1010.02 1009.90 1009.74 1009.62 1009.46 1009.34 1009.26 1009.18 1009.10 1009.02 1008.82 1008.58 1008.30 1008.10 1007.86 1007.66 1007.46 1007.26 1007.10 1006.98 1006.82 1006.70 1006.58 1006.46 1006.38 1006.30
1015.42 1015.34 1015.26 1015.18 1015.14 1015.02 1014.98 1014.94 1014.90 1014.90 1014.82 1014.74 1014.66 1014.58 1014.46 1014.30 1014.18 1014.02 1013.86 1013.70 1013.54 1013.38 1013.22 1013.02 1012.90 1012.74 1012.54 1012.30 1012.14 1011.90 1011.74 1011.50 1011.34 1011.26 1011.18 1011.02 1010.86 1010.70 1010.54 1010.42 1010.18 1009.98 1009.74 1009.62 1009.50 1009.34 1009.18 1009.06 1008.94 1008.86 1008.74 1008.70 1008.62 1008.46 1008.26 1008.02 1007.74 1007.54 1007.30 1007.06 1006.86 1006.70 1006.58 1006.46 1006.30 1006.18 1006.10 1006.02 1005.98
1015.26 1015.18 1015.14 1015.10 1015.02 1014.94 1014.90 1014.86 1014.82 1014.78 1014.74 1014.62 1014.50 1014.42 1014.30 1014.18 1013.98 1013.82 1013.66 1013.46 1013.30 1013.10 1012.94 1012.82 1012.62 1012.46 1012.26 1012.06 1011.90 1011.66 1011.42 1011.22 1011.06 1010.98 1010.90 1010.82 1010.62 1010.38 1010.18 1010.02 1009.82 1009.58 1009.38 1009.22 1009.10 1008.94 1008.82 1008.62 1008.50 1008.38 1008.30 1008.22 1008.18 1008.10 1007.90 1007.62 1007.38 1007.14 1006.90 1006.66 1006.46 1006.30 1006.18 1006.02 1005.90 1005.82 1005.74 1005.66 1005.58
1015.14 1015.10 1015.06 1015.02 1014.90 1014.90 1014.82 1014.78 1014.70 1014.66 1014.58 1014.50 1014.38 1014.26 1014.10 1013.94 1013.74 1013.58 1013.46 1013.26 1013.10 1012.90 1012.70 1012.50 1012.30 1012.14 1011.94 1011.74 1011.54 1011.34 1011.18 1010.98 1010.86 1010.74 1010.66 1010.54 1010.34 1010.10 1009.86 1009.62 1009.38 1009.18 1008.98 1008.82 1008.66 1008.54 1008.38 1008.22 1008.06 1007.94 1007.86 1007.78 1007.74 1007.62 1007.46 1007.26 1007.02 1006.74 1006.50 1006.30 1006.06 1005.90 1005.82 1005.70 1005.54 1005.42 1005.30 1005.26 1005.22
1015.02 1015.02 1014.98 1014.90 1014.86 1014.74 1014.70 1014.66 1014.58 1014.54 1014.46 1014.34 1014.26 1014.10 1013.94 1013.74 1013.58 1013.38 1013.18 1013.06 1012.90 1012.74 1012.50 1012.30 1012.10 1011.90 1011.70 1011.46 1011.30 1011.10 1010.90 1010.74 1010.66 1010.54 1010.38 1010.26 1010.02 1009.78 1009.54 1009.30 1009.02 1008.78 1008.58 1008.42 1008.26 1008.10 1007.90 1007.74 1007.62 1007.50 1007.38 1007.30 1007.30 1007.18 1006.98 1006.78 1006.54 1006.30 1006.06 1005.82 1005.62 1005.46 1005.38 1005.30 1005.14 1005.02 1004.90 1004.86 1004.82
1015.02 1014.98 1014.90 1014.86 1014.78 1014.70 1014.62 1014.58 1014.50 1014.42 1014.30 1014.18 1014.02 1013.90 1013.74 1013.58 1013.38 1013.18 1012.98 1012.86 1012.70 1012.50 1012.30 1012.10 1011.98 1011.74 1011.54 1011.30 1011.18 1010.94 1010.74 1010.58 1010.46 1010.30 1010.14 1009.90 1009.74 1009.46 1009.22 1008.94 1008.70 1008.46 1008.22 1008.02 1007.86 1007.66 1007.50 1007.30 1007.18 1007.02 1006.90 1006.82 1006.78 1006.62 1006.46 1006.22 1006.02 1005.78 1005.54 1005.30 1005.14 1005.02 1004.90 1004.78 1004.66 1004.54 1004.46 1004.42 1004.38
1014.94 1014.90 1014.86 1014.78 1014.74 1014.66 1014.54 1014.46 1014.34 1014.26 1014.14 1013.98 1013.82 1013.70 1013.54 1013.38 1013.22 1013.02 1012.78 1012.62 1012.46 1012.30 1012.10 1011.90 1011.74 1011.58 1011.34 1011.14 1010.94 1010.74 1010.58 1010.38 1010.18 1010.02 1009.86 1009.66 1009.46 1009.18 1008.90 1008.58 1008.30 1008.02 1007.82 1007.62 1007.42 1007.22 1007.02 1006.90 1006.70 1006.50 1006.42 1006.38 1006.30 1006.14 1005.90 1005.66 1005.46 1005.26 1005.02 1004.82 1004.62 1004.46 1004.38 1004.26 1004.18 1004.02 1003.98 1003.90 1003.86
1014.90 1014.90 1014.90 1014.78 1014.70 1014.58 1014.46 1014.30 1014.18 1014.06 1013.90 1013.82 1013.66 1013.50 1013.30 1013.14 1012.94 1012.78 1012.62 1012.46 1012.26 1012.06 1011.86 1011.66 1011.50 1011.30 1011.14 1010.90 1010.70 1010.54 1010.38 1010.18 1009.94 1009.74 1009.54 1009.34 1009.18 1008.90 1008.58 1008.18 1007.86 1007.58 1007.38 1007.18 1007.02 1006.78 1006.58 1006.42 1006.22 1006.06 1005.94 1005.86 1005.74 1005.58 1005.34 1005.14 1004.90 1004.70 1004.46 1004.30 1004.10 1003.90 1003.78 1003.70 1003.58 1003.50 1003.46 1003.34 1003.34
1014.90 1014.90 1014.90 1014.82 1014.62 1014.46 1014.30 1014.18 1014.02 1013.90 1013.74 1013.62 1013.46 1013.30 1013.14 1012.94 1012.74 1012.58 1012.46 1012.30 1012.10 1011.86 1011.62 1011.46 1011.30 1011.14 1010.90 1010.70 1010.46 1010.30 1010.14 1009.98 1009.74 1009.50 1009.26 1009.02 1008.86 1008.58 1008.30 1007.86 1007.54 1007.22 1006.98 1006.74 1006.58 1006.34 1006.18 1005.94 1005.74 1005.58 1005.50 1005.42 1005.22 1005.02 1004.78 1004.58 1004.34 1004.14 1003.90 1003.70 1003.50 1003.30 1003.18 1003.14 1003.02 1002.94 1002.86 1002.78 1002.74
1014.90 1014.90 1014.86 1014.74 1014.54 1014.34 1014.18 1014.06 1013.94 1013.82 1013.62 1013.46 1013.30 1013.14 1012.98 1012.78 1012.58 1012.38 1012.26 1012.18 1012.02 1011.74 1011.46 1011.30 1011.14 1010.90 1010.74 1010.54 1010.30 1010.02 1009.86 1009.70 1009.50 1009.26 1008.98 1008.74 1008.54 1008.30 1008.02 1007.62 1007.26 1006.90 1006.58 1006.38 1006.18 1005.94 1005.74 1005.54 1005.30 1005.18 1005.02 1004.90 1004.74 1004.54 1004.30 1004.10 1003.86 1003.58 1003.38 1003.14 1002.90 1002.74 1002.58 1002.54 1002.42 1002.30 1002.18 1002.10 1002.06
1014.86 1014.82 1014.74 1014.58 1014.46 1014.30 1014.14 1014.02 1013.86 1013.74 1013.58 1013.38 1013.18 1012.98 1012.78 1012.62 1012.46 1012.30 1012.18 1012.06 1011.90 1011.70 1011.42 1011.18 1010.98 1010.74 1010.54 1010.34 1010.10 1009.86 1009.58 1009.34 1009.18 1008.94 1008.74 1008.46 1008.22 1008.02 1007.74 1007.42 1007.02 1006.58 1006.30 1006.02 1005.78 1005.58 1005.34 1005.14 1004.90 1004.70 1004.58 1004.46 1004.30 1004.10 1003.86 1003.62 1003.34 1003.10 1002.90 1002.66 1002.42 1002.18 1002.02 1001.90 1001.82 1001.66 1001.54 1001.46 1001.38
1014.78 1014.74 1014.66 1014.54 1014.38 1014.22 1014.02 1013.86 1013.74 1013.58 1013.46 1013.30 1013.10 1012.86 1012.66 1012.54 1012.38 1012.22 1012.06 1011.94 1011.78 1011.58 1011.34 1011.14 1010.86 1010.58 1010.38 1010.18 1009.94 1009.62 1009.30 1009.02 1008.78 1008.58 1008.42 1008.18 1007.86 1007.66 1007.46 1007.18 1006.74 1006.38 1006.02 1005.74 1005.46 1005.22 1004.98 1004.74 1004.46 1004.26 1004.10 1003.98 1003.82 1003.62 1003.42 1003.18 1002.90 1002.62 1002.38 1002.18 1001.90 1001.66 1001.46 1001.26 1001.18 1001.06 1000.94 1000.78 1000.74
1014.74 1014.62 1014.54 1014.42 1014.30 1014.18 1013.98 1013.78 1013.58 1013.46 1013.38 1013.22 1013.02 1012.82 1012.62 1012.46 1012.30 1012.14 1011.98 1011.82 1011.62 1011.46 1011.26 1010.98 1010.70 1010.42 1010.18 1010.02 1009.74 1009.42 1009.06 1008.74 1008.42 1008.18 1008.02 1007.86 1007.58 1007.30 1007.06 1006.82 1006.46 1006.10 1005.74 1005.42 1005.14 1004.86 1004.58 1004.30 1004.06 1003.82 1003.66 1003.50 1003.34 1003.18 1002.94 1002.70 1002.42 1002.10 1001.82 1001.58 1001.34 1001.14 1000.90 1000.66 1000.54 1000.42 1000.30 1000.18 1000.10
Wind_Speed
2 2 2 1 1 1 1 1 1 1 1 1 2 2 2 2 2 3 3 3 3 4 4 5 5 6 7 8 9 10 10 10 11 11 11 11 11 12 12 12 11 11 11 11 11 11 10 10 9 8 8 8 10 11 11 10 11 12 12 11 10 11 11 12 12 12 12 12 10
2 2 1 1 1 1 1 1 1 1 1 2 2 2 2 2 3 3 4 4 4 4 5 5 6 7 8 9 9 10 10 10 11 11 11 12 12 12 11 11 11 12 12 12 12 11 9 10 9 8 8 8 9 10 11 10 11 12 14 14 12 11 10 11 12 12 13 12 11
2 2 2 2 2 1 1 1 1 1 2 2 2 2 2 2 3 4 4 5 5 5 5 5 6 8 9 10 10 9 10 10 11 11 11 11 12 12 12 11 12 12 12 12 11 11 10 10 9 8 8 8 9 10 11 11 12 13 14 15 12 10 9 9 10 11 10 10 11
2 2 2 2 2 2 1 1 2 2 2 2 2 2 2 3 3 4 5 6 6 6 6 6 6 7 8 9 10 10 10 10 11 12 12 12 12 13 13 12 13 13 13 12 13 13 12 12 10 9 9 10 11 11 11 10 12 12 12 12 11 10 10 9 9 9 9 9 10
1 1 1 1 1 1 2 2 2 2 2 2 2 2 3 3 4 4 5 6 6 6 7 8 7 7 7 9 11 11 12 11 11 11 11 12 13 13 13 13 13 13 13 13 13 13 13 13 10 9 9 10 10 10 11 12 13 12 11 10 10 10 10 10 9 9 9 9 9
1 1 1 1 1 2 2 2 2 3 2 2 3 4 4 4 5 6 6 7 7 8 9 9 8 8 8 10 11 11 11 11 10 11 11 12 12 13 14 14 14 13 13 13 14 14 13 12 10 9 9 10 10 11 13 14 14 13 12 11 11 10 10 11 10 9 9 10 11
0 1 1 1 2 2 2 2 2 2 2 3 4 6 7 7 7 8 8 8 8 8 8 7 7 8 9 10 10 11 11 11 11 12 12 12 13 13 14 14 14 14 14 14 14 13 13 11 10 9 9 9 10 11 13 14 14 13 13 13 12 11 11 12 10 10 11 13 14
1 1 2 2 2 2 2 2 2 2 3 3 5 7 8 9 9 9 9 8 7 7 7 7 8 10 10 10 10 11 11 12 12 13 13 13 14 15 14 14 14 14 14 14 13 13 12 11 9 9 10 10 10 11 13 15 15 15 15 15 13 12 11 11 10 11 12 15 16
1 1 2 2 2 2 3 3 3 4 5 6 7 8 9 9 9 9 8 7 7 8 8 8 10 11 11 11 11 11 11 12 13 13 13 13 14 14 14 14 14 15 14 14 14 14 14 11 10 10 10 10 10 11 13 15 16 17 16 15 15 14 14 13 13 14 15 16 17
1 1 2 2 2 3 3 4 4 5 6 7 8 8 8 8 8 7 7 7 7 8 9 9 10 11 11 12 12 12 12 11 12 13 13 13 14 14 15 14 14 15 15 14 14 14 14 12 11 12 12 12 13 15 16 16 17 18 17 14 14 16 17 16 17 17 17 16 17
2 2 2 2 3 3 4 5 5 6 7 7 8 8 8 7 7 7 7 7 8 10 10 10 11 11 12 11 12 12 12 11 12 12 13 14 15 15 15 15 15 16 16 15 14 13 13 12 13 14 15 15 15 16 17 17 18 19 18 16 17 18 19 20 19 18 17 17 18
2 2 3 3 4 4 5 5 5 6 6 7 8 8 8 8 8 9 9 10 11 11 11 11 11 12 12 11 11 12 12 12 13 14 14 15 16 16 16 16 16 16 16 16 14 13 12 13 14 16 17 18 15 15 15 18 18 19 19 19 20 20 20 21 20 19 17 18 18
3 3 4 4 5 5 5 5 5 6 7 8 8 8 8 9 9 10 10 11 11 11 11 11 11 12 12 11 12 12 12 13 14 14 14 15 16 16 16 16 16 16 16 16 14 13 13 14 16 17 18 18 16 16 16 18 19 19 20 20 21 21 21 22 21 20 20 20 20
4 4 5 5 5 5 5 5 6 6 7 8 9 9 9 9 9 10 10 11 11 11 11 11 11 11 11 12 12 13 13 14 14 15 16 16 16 16 16 16 16 16 16 14 14 15 15 16 17 18 19 19 19 18 19 19 19 19 20 21 21 22 22 22 22 21 21 21 21
5 5 5 5 5 5 5 6 6 7 8 9 9 9 9 9 9 9 10 11 11 11 11 11 11 11 12 13 13 14 14 14 15 16 16 17 16 16 16 16 16 16 16 15 15 15 16 17 18 18 19 19 20 20 20 20 20 20 20 21 22 22 22 22 22 21 21 21 21
5 5 5 4 5 5 6 6 6 7 7 8 9 9 9 9 9 9 10 11 11 10 11 12 12 12 12 13 13 14 14 14 15 16 16 16 16 17 17 17 17 17 17 17 16 16 16 17 17 18 19 19 20 20 20 20 20 21 21 21 22 22 23 23 23 22 22 22 22
5 4 4 5 6 6 7 7 7 7 8 9 9 9 9 9 9 9 10 11 10 11 12 13 12 12 13 13 13 13 13 14 14 15 15 16 17 17 17 17 17 17 17 18 18 18 18 18 17 18 18 19 20 20 20 21 21 21 21 22 22 22 23 23 23 23 23 23 23
4 4 5 5 6 7 8 8 8 8 9 10 10 10 9 9 10 10 11 11 11 12 13 14 13 13 13 14 13 13 12 13 14 15 15 16 17 17 18 18 18 18 18 18 18 18 19 19 18 18 18 18 19 19 20 20 20 21 21 22 22 22 23 23 23 23 22 23 23
4 5 6 6 7 8 8 9 9 9 9 10 10 10 10 11 11 11 12 12 12 13 14 14 14 14 14 15 15 14 13 14 15 16 17 17 17 18 18 18 18 18 18 18 18 19 19 19 18 18 18 18 18 18 19 19 20 20 21 21 22 22 22 23 23 22 22 22 23
5 6 6 7 7 8 8 9 9 9 10 9 10 11 11 12 12 12 13 13 13 14 14 15 15 15 15 16 16 15 15 13 15 16 17 17 17 18 18 18 19 19 18 18 18 18 18 18 18 18 18 18 18 19 19 19 20 20 20 20 21 21 22 22 23 23 23 23 23
6 6 7 7 8 8 9 9 9 9 10 10 11 11 12 12 13 13 14 14 14 14 15 15 15 16 16 16 17 17 16 14 15 16 17 17 17 18 18 18 18 18 18 17 17 18 18 18 18 18 18 18 19 19 19 19 19 20 20 19 20 21 22 22 22 22 22 22 23
6 6 7 7 8 8 9 9 9 9 10 10 11 11 12 12 13 14 14 14 14 15 15 15 16 16 17 17 17 17 17 15 15 16 16 16 17 17 17 17 18 18 18 18 18 18 18 18 18 18 18 18 18 19 19 19 19 20 20 21 21 22 22 22 22 22 22 22 22
6 7 7 7 8 8 9 9 9 10 10 11 11 12 12 12 13 14 14 14 14 14 15 15 15 16 17 17 17 17 17 17 17 17 17 16 17 17 17 17 17 18 18 17 16 16 16 16 17 17 17 17 18 18 19 19 19 19 19 21 21 22 22 22 22 22 22 22 22
7 7 7 6 8 8 9 9 10 10 11 11 12 12 13 13 14 14 14 15 15 15 15 14 14 15 16 17 17 17 17 18 18 18 17 17 17 17 17 16 16 16 16 14 14 14 15 14 14 14 15 15 16 16 17 17 17 18 18 19 20 20 20 21 21 21 22 22 22
7 7 7 7 8 9 9 10 10 11 12 12 13 13 14 14 14 14 14 15 15 15 15 15 15 15 15 15 16 16 16 17 17 18 18 17 17 17 16 15 15 14 13 13 16 19 19 18 16 14 14 14 15 15 16 16 17 17 18 18 19 19 19 20 20 21 21 22 21
7 7 8 8 8 9 10 10 11 12 12 13 13 14 14 14 14 14 15 16 16 16 16 16 15 15 14 14 15 16 16 15 16 17 17 17 17 17 17 15 14 12 12 14 18 21 23 23 22 20 17 15 15 16 16 16 17 17 18 19 19 19 19 19 20 20 21 20 20
7 8 8 8 9 10 10 11 11 12 13 13 14 15 15 15 14 15 15 16 16 16 16 15 14 14 14 13 15 16 16 15 16 16 17 17 17 18 17 16 14 12 13 16 20 23 24 25 25 24 22 18 17 16 16 16 17 18 18 19 19 19 20 21 21 21 21 20 20
8 8 8 8 9 10 11 11 12 12 13 14 15 15 15 16 16 16 16 16 16 16 15 13 13 12 11 12 14 15 16 16 16 16 16 16 17 17 17 16 14 14 16 20 23 25 25 26 26 26 25 22 18 17 16 17 17 17 17 17 18 19 20 20 20 19 20 20 21
8 8 8 9 10 10 11 12 12 13 13 14 15 15 16 16 16 17 17 17 17 16 14 13 11 11 11 12 14 16 17 18 16 16 15 16 17 17 17 17 17 18 20 24 25 26 27 27 27 27 27 25 19 15 14 14 15 15 15 15 16 17 18 18 17 17 18 19 19
8 8 8 9 10 10 11 12 12 13 13 13 14 15 16 16 17 17 17 17 17 16 14 13 13 13 14 15 16 16 16 17 16 16 16 17 17 18 18 18 18 19 21 24 26 27 27 28 28 28 28 27 23 18 15 15 15 15 15 15 16 17 18 19 19 19 19 18 18
8 8 8 9 10 11 11 12 12 13 13 13 15 16 16 16 17 17 17 17 17 16 16 16 16 17 17 17 16 17 17 17 17 16 16 17 18 19 19 20 20 20 22 25 26 27 28 28 28 28 28 28 23 19 16 16 16 16 16 16 18 19 20 19 20 20 20 20 20
8 8 8 9 10 11 11 12 12 13 14 15 15 16 16 17 17 17 17 16 16 17 17 17 18 18 18 18 18 18 18 18 18 17 17 17 18 19 20 20 21 21 22 25 27 27 28 28 28 28 28 28 24 20 18 18 18 18 18 19 21 22 22 19 19 20 22 22 21
8 8 8 9 10 11 12 12 12 13 14 15 15 16 16 17 17 17 17 16 16 16 17 17 17 18 18 18 18 18 19 18 18 18 19 19 20 20 21 20 19 20 22 25 27 27 28 28 28 28 28 28 23 20 19 19 17 17 17 19 20 22 23 23 22 22 22 23 22
7 8 8 10 10 11 12 12 13 13 14 15 15 16 16 17 17 17 17 16 15 15 16 16 16 16 17 17 17 18 18 17 17 18 19 20 20 21 21 19 16 18 22 26 27 28 29 29 29 29 29 28 23 19 18 19 18 17 18 19 20 21 22 23 24 24 24 24 22
7 7 8 9 10 11 12 13 13 14 14 15 15 16 16 17 17 17 16 16 16 15 15 15 15 16 16 16 17 17 18 18 18 18 19 20 20 21 21 21 19 21 25 28 29 29 29 30 30 30 29 26 20 17 17 19 19 19 20 21 22 22 23 24 23 23 24 24 23
6 6 7 9 10 12 12 13 14 14 15 15 15 16 17 17 17 16 16 16 16 16 16 16 16 16 17 17 17 17 17 18 19 19 19 19 20 21 21 22 22 24 26 28 29 29 30 30 30 29 28 23 17 15 15 16 16 17 19 21 22 23 23 24 23 23 23 23 23
6 6 7 8 10 12 13 13 14 15 15 15 16 16 17 17 17 16 15 15 15 16 16 16 16 17 17 18 18 18 18 18 19 19 20 20 20 20 21 22 23 24 26 27 28 29 29 30 30 29 26 20 16 14 14 13 13 15 17 19 20 22 22 21 21 22 22 23 23
6 6 7 9 11 12 13 13 14 15 15 16 16 16 16 16 16 15 15 14 15 15 16 16 17 17 18 18 18 19 19 19 19 20 20 20 19 20 20 22 22 23 24 26 28 29 29 30 30 29 25 19 16 14 13 12 13 14 15 16 17 19 19 18 17 18 20 23 25
6 7 8 10 11 12 13 14 14 15 15 16 16 16 16 16 15 14 14 14 14 15 16 16 17 18 18 18 18 18 19 20 20 20 19 19 19 20 21 21 22 22 23 25 28 29 30 30 30 29 27 21 16 13 12 11 13 14 14 15 15 16 17 17 16 16 18 22 27
6 7 8 10 11 12 13 14 14 14 14 15 16 16 16 15 15 14 14 13 14 14 15 16 17 18 18 18 18 18 19 20 20 20 19 19 20 21 22 21 21 22 23 25 28 29 29 30 30 29 27 21 16 13 11 11 12 13 14 14 14 14 15 15 15 15 16 19 23
6 8 9 10 11 12 12 13 14 14 14 14 15 15 15 15 14 14 14 13 14 14 14 14 17 18 19 18 17 17 19 20 21 20 20 20 20 20 20 20 20 21 22 24 26 28 29 29 29 29 27 20 15 12 11 11 12 13 15 15 14 13 13 14 14 14 15 17 18
Wind_Direction
135 138 146 154 164 174 187 199 210 222 234 239 248 252 258 266 275 280 282 282 282 283 283 282 282 282 280 279 277 277 278 279 279 279 279 279 280 282 284 285 285 284 284 283 283 283 283 281 279 276 272 269 266 263 260 257 255 253 250 245 243 241 240 239 239 238 235 232 232
131 139 149 162 179 192 209 218 218 223 231 239 253 263 270 274 281 285 286 283 280 280 280 281 280 280 280 279 278 277 278 278 278 277 276 276 276 277 278 279 280 280 280 281 281 281 280 279 278 275 272 270 266 263 260 254 252 252 251 248 246 244 242 241 241 240 238 235 233
133 146 159 174 187 199 216 231 241 246 248 249 257 266 272 275 280 284 285 284 281 279 279 279 280 281 281 282 280 279 277 277 276 276 275 275 275 275 275 276 277 277 277 276 276 276 276 276 276 274 271 269 266 264 261 256 252 251 251 249 248 246 244 244 243 241 239 237 236
143 153 167 183 199 212 235 262 278 280 279 276 273 271 271 274 278 281 284 284 282 279 277 278 280 281 282 282 281 279 277 275 275 275 275 274 275 275 275 274 275 275 275 275 275 274 274 274 273 271 269 267 265 263 261 257 253 251 250 249 249 248 247 247 244 241 239 240 239
141 150 170 207 226 242 257 272 281 286 289 294 292 289 285 282 281 281 282 283 282 282 282 284 283 282 280 279 279 278 277 275 273 273 273 274 275 275 275 274 273 273 274 274 273 273 273 273 273 272 269 267 264 261 259 257 254 252 250 249 249 248 247 247 245 242 240 241 240
117 144 199 246 255 260 264 266 273 280 289 294 293 292 291 289 287 286 286 286 287 287 287 286 283 280 278 279 279 278 277 276 274 273 273 275 275 275 275 274 273 272 271 271 271 271 271 271 272 271 269 268 265 262 259 257 255 252 250 249 248 247 247 245 244 243 241 241 241
348 290 263 260 257 259 263 267 273 278 283 284 285 285 286 286 286 285 285 286 287 288 287 284 281 280 280 281 281 280 280 280 279 278 277 276 276 275 274 273 272 270 269 269 269 269 268 267 268 268 268 268 266 263 260 256 254 252 250 249 247 246 246 246 245 244 243 243 242
291 280 276 273 266 266 269 272 276 277 277 277 278 280 281 281 281 282 283 284 286 287 287 285 285 284 284 283 282 282 282 282 282 281 280 279 279 278 276 274 273 271 269 268 267 266 265 264 264 264 265 265 265 264 262 259 256 253 251 250 249 247 245 244 242 243 244 244 243
247 254 260 263 263 264 267 269 267 268 270 273 274 275 276 277 278 280 283 285 287 289 289 288 288 287 285 283 282 282 283 283 284 284 283 282 281 280 279 277 276 274 272 270 268 267 265 263 261 261 261 262 262 263 263 262 260 257 255 253 252 251 249 247 244 244 244 245 244
228 238 246 251 254 256 259 259 258 260 264 270 273 274 275 275 277 280 284 288 290 290 289 288 289 289 287 286 285 285 285 284 284 284 284 283 282 281 280 279 278 278 277 275 274 271 269 265 262 260 259 259 260 261 262 262 261 260 258 256 255 254 253 252 249 248 246 246 245
225 235 243 252 253 254 255 255 259 262 268 275 280 283 285 285 287 290 292 293 292 291 291 291 292 291 290 289 288 288 287 287 287 287 286 285 284 283 282 281 280 279 279 278 277 275 273 269 265 263 261 260 260 259 259 258 258 258 258 258 258 257 257 255 253 251 250 248 247
226 234 240 246 249 250 252 257 267 275 283 289 294 298 300 300 301 300 299 298 296 295 295 296 295 294 293 291 290 290 290 290 289 289 288 286 285 284 283 282 281 280 279 278 277 275 273 270 268 267 266 264 263 261 259 258 257 257 257 257 257 257 257 256 254 253 252 250 249
226 233 238 242 244 247 254 266 280 291 299 304 307 308 308 307 306 304 302 300 299 299 299 299 297 295 293 292 293 293 293 292 291 290 288 287 286 285 284 282 281 280 279 278 277 274 272 271 270 270 269 268 266 264 262 261 259 258 257 257 256 256 255 255 254 254 253 253 252
226 231 237 241 245 254 269 286 296 305 310 312 311 311 309 308 306 305 303 302 302 301 300 299 297 295 295 295 295 295 294 293 292 290 288 287 286 285 284 283 282 281 280 278 277 275 273 272 272 271 271 271 270 268 266 264 262 261 259 258 257 256 255 254 254 253 253 252 252
228 234 240 248 260 276 293 304 308 312 313 312 311 310 308 306 306 305 304 303 302 301 300 299 298 297 296 296 295 295 294 292 291 290 289 288 287 285 284 283 283 282 281 280 278 276 274 274 273 273 273 273 272 271 269 267 265 263 262 260 259 257 256 255 254 253 252 251 251
235 244 254 269 286 299 307 311 311 311 311 309 309 308 307 305 305 305 304 302 301 300 299 299 298 298 297 296 295 295 294 293 291 290 289 289 288 287 286 285 284 283 282 281 280 278 276 274 274 274 273 273 273 272 271 269 268 266 264 262 260 259 257 256 255 253 252 250 250
251 266 281 294 302 306 308 308 308 308 307 307 307 306 305 305 305 304 303 302 301 300 299 299 298 298 298 297 297 296 295 293 292 291 290 289 289 289 288 287 286 285 284 283 281 279 278 276 275 274 273 273 272 272 271 270 269 267 266 264 262 261 259 257 256 254 253 251 250
276 290 299 302 304 304 304 303 303 303 304 304 304 305 304 305 305 304 303 301 300 300 299 299 298 298 297 298 297 296 295 294 293 291 290 290 290 289 288 287 286 285 284 283 281 280 279 277 276 275 273 272 272 271 271 271 270 269 268 266 265 263 262 260 258 256 254 252 251
290 297 300 300 300 300 300 300 301 302 302 303 303 304 304 304 304 303 302 301 301 300 300 299 299 298 297 297 297 296 294 293 292 291 290 290 289 288 287 287 286 285 284 282 281 280 279 278 276 275 273 271 271 270 270 269 269 269 268 268 267 266 264 262 260 258 255 253 252
290 294 295 296 297 297 298 298 299 301 302 302 303 303 303 303 303 302 302 302 302 302 301 299 299 298 298 297 297 295 294 292 292 291 290 290 289 288 287 287 286 285 283 281 280 279 277 276 275 273 272 271 270 269 268 268 268 268 268 268 267 266 265 264 263 260 258 255 253
286 289 291 293 294 295 296 298 299 300 301 302 302 302 303 303 303 303 303 303 303 302 301 299 299 298 298 297 297 296 295 293 292 291 291 290 289 288 287 287 286 284 282 280 279 277 276 275 273 272 271 270 269 268 267 267 266 266 266 266 266 266 266 266 265 263 261 258 255
284 287 289 290 291 293 295 297 299 300 301 301 302 303 304 304 304 304 303 303 303 302 301 300 299 298 297 297 296 296 295 293 292 291 290 289 288 288 287 286 285 283 281 279 278 276 275 274 272 271 270 269 267 266 265 265 265 264 264 264 264 264 265 265 265 265 264 262 259
283 286 288 289 291 293 295 297 299 301 302 303 305 306 306 305 305 305 304 304 303 301 300 299 297 296 296 295 295 294 294 292 290 289 288 287 287 287 286 285 283 281 280 278 277 276 275 274 273 271 270 268 267 266 265 264 263 263 262 262 262 262 261 262 262 263 263 263 262
281 284 286 289 293 296 297 300 302 304 306 308 309 309 308 307 307 306 305 304 302 301 299 298 296 295 294 293 292 292 291 290 289 288 288 287 287 287 286 285 283 281 280 279 277 276 276 275 275 273 272 270 269 268 266 265 264 264 263 263 263 262 261 260 259 259 260 261 261
279 282 285 289 294 297 300 303 306 308 310 311 311 311 310 309 308 307 305 304 302 300 299 297 296 294 293 292 291 290 289 288 288 289 289 289 289 289 288 287 285 283 282 280 279 278 276 275 275 274 274 273 271 270 269 267 266 266 266 266 266 265 264 263 261 259 258 257 258
280 283 286 290 295 299 303 307 309 311 311 312 312 312 311 310 308 306 305 303 302 301 300 298 296 294 292 290 290 289 289 288 289 290 291 292 291 291 289 287 286 284 282 280 279 278 277 276 274 273 273 272 272 271 269 268 266 265 265 265 265 265 266 265 264 262 260 258 257
281 284 289 294 299 303 307 309 311 312 312 312 312 312 311 310 308 306 304 302 301 300 299 297 295 293 291 289 290 290 291 291 291 291 291 291 291 290 289 287 285 283 281 279 279 278 277 276 274 273 271 270 270 270 269 269 267 265 263 262 262 262 263 263 264 264 264 262 260
281 287 293 299 303 306 309 312 312 312 313 312 312 311 310 309 307 305 303 301 300 299 298 296 295 293 292 291 292 293 293 293 292 292 291 291 289 288 288 286 284 282 279 279 279 278 277 276 275 274 272 271 270 269 269 268 267 265 263 261 260 260 260 260 261 262 262 263 262
283 290 297 303 306 308 310 312 312 312 311 311 310 309 308 307 305 304 302 301 300 299 298 297 297 296 295 294 294 295 294 293 292 292 291 291 289 287 286 285 283 281 280 279 279 279 278 277 276 274 273 271 270 269 268 267 266 265 263 261 260 258 258 257 257 257 258 259 260
290 296 301 305 306 308 309 310 310 310 310 309 309 308 307 306 304 303 302 301 300 299 298 298 298 296 295 294 294 294 294 293 293 293 293 291 289 287 285 284 283 281 281 280 280 279 279 278 277 275 274 272 270 268 267 266 265 264 263 262 260 259 258 257 257 256 256 256 256
295 300 303 305 305 305 306 307 308 308 308 308 308 307 306 305 303 302 301 301 300 300 299 298 296 295 294 293 293 293 294 294 295 295 293 291 289 287 285 284 283 282 281 281 281 280 279 278 277 276 274 272 270 267 265 264 263 263 262 261 260 259 258 258 257 256 255 254 254
299 302 303 303 303 304 305 306 307 308 308 308 307 306 305 303 302 301 301 301 301 300 300 299 298 296 296 295 295 295 295 296 296 295 293 291 289 287 286 285 284 283 282 282 282 281 280 279 278 277 275 273 271 268 264 263 262 261 261 260 260 259 258 257 256 255 255 254 253
301 302 302 302 302 303 305 306 307 308 308 307 306 304 303 302 301 301 301 301 301 300 300 299 298 298 297 298 297 297 296 295 295 294 292 291 289 288 287 286 285 284 283 283 283 282 281 280 279 278 277 275 272 269 265 263 261 260 259 258 258 257 256 256 255 255 254 253 252
301 301 302 302 303 304 306 307 307 308 307 305 304 303 302 302 302 302 302 302 302 301 299 298 297 296 296 296 296 296 295 295 294 293 292 290 289 288 287 286 285 284 284 285 284 284 283 282 281 279 278 276 273 269 265 263 261 259 258 257 257 256 255 254 253 253 252 251 250
301 302 303 303 304 305 306 307 308 307 306 305 304 303 303 302 302 302 302 303 302 301 299 298 297 296 295 295 295 294 294 294 293 292 291 291 290 289 287 286 285 285 285 286 285 285 284 283 282 281 279 277 273 269 265 263 261 259 257 257 256 255 254 253 252 252 251 250 248
303 302 302 302 303 305 306 308 308 308 307 306 304 303 303 303 302 303 304 304 303 302 300 299 299 298 297 297 296 296 295 295 294 293 292 291 290 289 288 287 287 287 287 287 287 286 286 285 283 282 280 278 273 268 264 261 260 258 256 256 255 254 253 252 251 250 249 248 246
304 301 299 299 302 305 306 308 309 308 307 306 304 304 303 304 304 305 306 306 305 303 302 301 301 300 299 299 298 297 296 295 294 293 292 291 290 289 288 288 288 288 288 288 288 288 287 286 285 284 282 279 273 268 264 261 259 257 256 255 254 253 252 250 249 248 247 245 244
305 301 299 299 302 305 307 309 308 308 307 305 305 304 304 305 305 306 307 308 306 304 303 303 302 301 300 300 298 297 296 295 294 293 292 291 290 289 288 288 289 289 289 289 289 289 288 287 286 285 284 280 275 271 267 263 260 258 256 255 255 253 251 249 247 245 244 243 242
305 303 301 301 303 305 307 308 307 306 305 305 305 305 305 306 306 306 307 307 305 303 302 302 301 300 299 299 298 297 296 295 294 293 292 291 290 289 289 289 289 288 289 289 289 289 288 288 287 286 284 281 277 272 268 264 262 260 258 256 256 254 251 248 245 244 243 242 241
304 303 302 302 303 305 306 306 306 305 305 305 305 305 306 306 305 306 306 305 304 303 301 300 299 299 299 299 298 297 296 295 295 294 293 292 291 290 290 289 288 288 288 288 288 288 287 287 286 285 284 282 278 273 268 264 262 260 258 256 255 254 252 248 245 243 242 241 240
302 302 303 303 304 305 306 306 305 305 305 304 304 305 305 305 305 305 305 305 304 303 301 298 298 298 298 298 297 296 295 295 295 295 294 294 292 291 290 288 287 287 287 287 286 286 286 285 285 285 284 282 278 274 269 265 262 260 259 257 255 253 252 250 246 243 241 239 239